Voltar ao catálogo

ELECTRON KICK STAGE R/B

AtivoSSO
NORAD 59225·ROCKET BODY·🇺🇸 United States

Lançado Mar 12, 2024 de Rocket Lab Launch Complex 1

Loading…

Próximas Passagens (próximas 24 horas)

TLE

AtualizadoSource: Space-Track

Época: Sep 14, 2026, 16:42 UTC

1 59225U 24047B   26257.69628763  .00016212  00000-0  50282-3 0  9991
2 59225  97.6472 241.2221 0009257  65.4914 294.7292 15.33451942138875

Acompanhe ELECTRON KICK STAGE R/B em tempo real com AllMySat

Download on the App Store